Time,TemperatureF,DewpointF,PressureIn,WindDirection,WindDirectionDegrees,WindSpeedMPH,WindSpeedGustMPH,Humidity,HourlyPrecipIn,Conditions,Clouds,dailyrainin,SoftwareType,DateUTC
2013-10-15 00:00:00,49.5,36.2,30.06,NNE,22,2.3,5.5,60,0.00,,SKC,0.00,VWS V14.01,2013-10-15 05:00:00,
2013-10-15 00:19:00,49.3,37.2,30.06,East,90,0.0,10.2,63,0.00,,SKC,0.00,VWS V14.01,2013-10-15 05:19:00,
2013-10-15 00:20:00,49.3,37.2,30.06,East,90,0.0,10.2,63,0.00,,SKC,0.00,VWS V14.01,2013-10-15 05:20:00,
2013-10-15 00:40:00,49.1,38.6,30.03,NNE,22,2.3,8.6,67,0.00,,SKC,0.00,VWS V14.01,2013-10-15 05:40:00,
2013-10-15 01:00:00,48.6,40.0,30.03,ENE,68,1.8,7.0,72,0.00,,SKC,0.00,VWS V14.01,2013-10-15 06:00:00,
2013-10-15 01:20:00,48.6,40.3,30.03,East,90,0.0,9.4,73,0.00,,SKC,0.00,VWS V14.01,2013-10-15 06:20:00,
2013-10-15 01:39:00,48.9,39.9,30.00,ENE,68,0.0,10.2,71,0.00,,SKC,0.00,VWS V14.01,2013-10-15 06:39:00,
2013-10-15 01:40:00,48.9,39.9,30.00,ENE,68,0.0,10.2,71,0.00,,SKC,0.00,VWS V14.01,2013-10-15 06:40:00,
2013-10-15 02:00:00,47.5,40.3,30.00,NE,45,3.3,7.0,76,0.00,,SKC,0.00,VWS V14.01,2013-10-15 07:00:00,
2013-10-15 02:20:00,46.8,41.2,30.00,ENE,68,1.0,5.9,81,0.00,,SKC,0.00,VWS V14.01,2013-10-15 07:20:00,
2013-10-15 02:39:00,46.4,42.1,29.97,SE,135,1.0,5.1,85,0.05,,SKC,0.05,VWS V14.01,2013-10-15 07:39:00,
2013-10-15 02:40:00,46.4,42.1,29.97,SE,135,1.0,5.1,85,0.05,,SKC,0.05,VWS V14.01,2013-10-15 07:40:00,
2013-10-15 03:00:00,46.2,42.9,29.97,ESE,112,0.0,6.3,88,0.05,,SKC,0.05,VWS V14.01,2013-10-15 08:00:00,
2013-10-15 03:20:00,46.0,43.3,29.94,ENE,68,1.5,5.1,90,0.09,,SKC,0.09,VWS V14.01,2013-10-15 08:20:00,
2013-10-15 03:39:00,46.0,43.6,29.94,NE,45,2.8,7.0,91,0.13,,SKC,0.13,VWS V14.01,2013-10-15 08:39:00,
2013-10-15 03:40:00,46.0,43.6,29.94,NE,45,2.8,7.0,91,0.13,,SKC,0.13,VWS V14.01,2013-10-15 08:40:00,
2013-10-15 03:59:00,45.9,44.0,29.94,NNE,22,2.3,6.7,93,0.12,,SKC,0.17,VWS V14.01,2013-10-15 08:59:00,
2013-10-15 04:00:00,45.9,44.0,29.94,NNE,22,2.3,6.7,93,0.12,,SKC,0.17,VWS V14.01,2013-10-15 09:00:00,
2013-10-15 04:19:00,45.7,44.1,29.94,NNE,22,2.3,5.5,94,0.16,,SKC,0.21,VWS V14.01,2013-10-15 09:19:00,
2013-10-15 04:20:00,45.7,44.1,29.94,NNE,22,2.3,5.5,94,0.16,,SKC,0.21,VWS V14.01,2013-10-15 09:20:00,
2013-10-15 04:39:00,45.5,44.2,29.94,NE,45,1.5,6.7,95,0.21,,SKC,0.30,VWS V14.01,2013-10-15 09:39:00,
2013-10-15 04:40:00,45.5,44.2,29.94,NE,45,1.5,6.7,95,0.21,,SKC,0.30,VWS V14.01,2013-10-15 09:40:00,
2013-10-15 04:59:00,45.3,44.2,29.91,NE,45,3.3,11.4,96,0.21,,SKC,0.34,VWS V14.01,2013-10-15 09:59:00,
2013-10-15 05:00:00,45.3,44.2,29.91,NE,45,3.3,11.4,96,0.21,,SKC,0.34,VWS V14.01,2013-10-15 10:00:00,
2013-10-15 05:19:00,45.3,44.2,29.88,ENE,68,1.5,8.6,96,0.21,,SKC,0.38,VWS V14.01,2013-10-15 10:19:00,
2013-10-15 05:20:00,45.3,44.2,29.88,ENE,68,1.5,8.6,96,0.21,,SKC,0.38,VWS V14.01,2013-10-15 10:20:00,
2013-10-15 05:39:00,45.5,44.7,29.85,NNE,22,3.9,8.2,97,0.17,,SKC,0.38,VWS V14.01,2013-10-15 10:39:00,
2013-10-15 05:40:00,45.5,44.7,29.85,NNE,22,3.9,8.2,97,0.17,,SKC,0.38,VWS V14.01,2013-10-15 10:40:00,
2013-10-15 05:59:00,45.7,45.2,29.85,ENE,68,2.8,10.6,98,0.12,,SKC,0.42,VWS V14.01,2013-10-15 10:59:00,
2013-10-15 06:00:00,45.7,45.2,29.85,ENE,68,2.8,10.6,98,0.12,,SKC,0.42,VWS V14.01,2013-10-15 11:00:00,
2013-10-15 06:19:00,45.9,45.3,29.79,NNE,22,5.7,11.0,98,0.16,,SKC,0.50,VWS V14.01,2013-10-15 11:19:00,
2013-10-15 06:20:00,45.9,45.3,29.80,NNE,22,5.7,11.0,98,0.16,,SKC,0.50,VWS V14.01,2013-10-15 11:20:00,
2013-10-15 06:39:00,46.0,45.5,29.79,SSE,158,2.8,8.6,98,0.16,,SKC,0.54,VWS V14.01,2013-10-15 11:39:00,
2013-10-15 06:40:00,46.0,45.5,29.80,SSE,158,2.8,8.6,98,0.16,,SKC,0.54,VWS V14.01,2013-10-15 11:40:00,
2013-10-15 07:20:00,46.6,46.0,29.79,ENE,68,1.5,6.7,98,0.25,,SKC,0.63,VWS V14.01,2013-10-15 12:20:00,
2013-10-15 07:40:00,46.8,46.2,29.79,NE,45,1.5,4.7,98,0.17,,SKC,0.67,VWS V14.01,2013-10-15 12:40:00,
2013-10-15 08:00:00,46.9,46.4,29.79,ENE,68,1.3,7.0,98,0.13,,SKC,0.67,VWS V14.01,2013-10-15 13:00:00,
2013-10-15 08:20:00,47.1,46.6,29.79,East,90,1.5,5.1,98,0.04,,SKC,0.67,VWS V14.01,2013-10-15 13:20:00,
2013-10-15 08:40:00,47.3,46.8,29.79,NNE,22,0.0,5.5,98,0.08,,SKC,0.71,VWS V14.01,2013-10-15 13:40:00,
2013-10-15 09:00:00,47.5,27.2,29.76,East,90,1.5,7.4,45,0.08,,SKC,0.75,VWS V14.01,2013-10-15 14:00:00,
2013-10-15 09:20:00,48.0,47.5,29.76,East,90,0.0,10.2,98,0.12,,SKC,0.79,VWS V14.01,2013-10-15 14:20:00,
2013-10-15 09:40:00,48.0,47.5,29.76,ENE,68,0.0,6.7,98,0.25,,SKC,0.92,VWS V14.01,2013-10-15 14:40:00,
2013-10-15 10:00:00,48.4,47.8,29.76,ENE,68,1.3,5.1,98,0.21,,SKC,0.92,VWS V14.01,2013-10-15 15:00:00,
2013-10-15 10:20:00,48.6,48.0,29.76,ENE,68,0.0,6.7,98,0.17,,SKC,0.92,VWS V14.01,2013-10-15 15:20:00,
2013-10-15 10:40:00,48.7,48.2,29.74,NE,45,0.0,7.0,98,0.13,,SKC,0.92,VWS V14.01,2013-10-15 15:40:00,
2013-10-15 11:00:00,48.9,48.4,29.74,NNE,22,0.0,5.1,98,0.00,,SKC,0.92,VWS V14.01,2013-10-15 16:00:00,
2013-10-15 11:20:00,49.3,48.7,29.74,ENE,68,0.0,4.7,98,0.00,,SKC,0.92,VWS V14.01,2013-10-15 16:20:00,
2013-10-15 11:40:00,49.5,48.9,29.74,SSE,158,0.0,3.5,98,0.04,,SKC,0.96,VWS V14.01,2013-10-15 16:40:00,
2013-10-15 12:00:00,49.6,49.1,29.74,NNW,338,0.0,4.7,98,0.04,,SKC,0.96,VWS V14.01,2013-10-15 17:00:00,
2013-10-15 12:20:00,50.0,49.5,29.74,ENE,68,0.0,4.7,98,0.04,,SKC,0.96,VWS V14.01,2013-10-15 17:20:00,
2013-10-15 12:40:00,50.0,49.5,29.74,NNE,22,3.1,5.5,98,0.04,,SKC,0.96,VWS V14.01,2013-10-15 17:40:00,
2013-10-15 13:00:00,49.5,48.9,29.71,East,90,1.3,4.7,98,0.04,,SKC,1.00,VWS V14.01,2013-10-15 18:00:00,
2013-10-15 13:20:00,48.9,48.4,29.71,NE,45,1.5,5.5,98,0.04,,SKC,1.00,VWS V14.01,2013-10-15 18:20:00,
2013-10-15 13:40:00,48.7,48.2,29.71,ENE,68,0.0,5.9,98,0.04,,SKC,1.00,VWS V14.01,2013-10-15 18:40:00,
2013-10-15 14:00:00,48.9,48.4,29.71,NNE,22,1.8,6.3,98,0.08,,SKC,1.04,VWS V14.01,2013-10-15 19:00:00,
2013-10-15 14:20:00,48.9,48.4,29.68,ENE,68,1.3,5.9,98,0.04,,SKC,1.04,VWS V14.01,2013-10-15 19:20:00,
2013-10-15 14:40:00,49.1,48.6,29.68,ENE,68,3.1,4.7,98,0.04,,SKC,1.04,VWS V14.01,2013-10-15 19:40:00,
2013-10-15 15:00:00,49.3,48.7,29.68,NNE,22,0.0,7.0,98,0.04,,SKC,1.04,VWS V14.01,2013-10-15 20:00:00,
2013-10-15 15:20:00,49.6,49.1,29.68,NE,45,2.3,6.7,98,0.00,,SKC,1.04,VWS V14.01,2013-10-15 20:20:00,
2013-10-15 15:40:00,49.6,49.1,29.68,ENE,68,2.6,5.9,98,0.00,,SKC,1.04,VWS V14.01,2013-10-15 20:40:00,
2013-10-15 16:00:00,49.6,49.1,29.68,NE,45,1.3,4.7,98,0.00,,SKC,1.04,VWS V14.01,2013-10-15 21:00:00,
2013-10-15 16:20:00,49.5,48.9,29.68,NNE,22,2.8,6.7,98,0.00,,SKC,1.04,VWS V14.01,2013-10-15 21:20:00,
2013-10-15 16:40:00,49.3,48.7,29.68,NE,45,0.0,6.3,98,0.04,,SKC,1.08,VWS V14.01,2013-10-15 21:40:00,
2013-10-15 17:00:00,49.5,48.9,29.68,NE,45,3.3,5.9,98,0.04,,SKC,1.08,VWS V14.01,2013-10-15 22:00:00,
2013-10-15 17:20:00,49.3,48.7,29.68,ENE,68,2.3,7.4,98,0.09,,SKC,1.13,VWS V14.01,2013-10-15 22:20:00,
2013-10-15 17:40:00,49.3,48.7,29.68,ENE,68,1.5,8.6,98,0.09,,SKC,1.13,VWS V14.01,2013-10-15 22:40:00,
2013-10-15 18:00:00,49.3,48.7,29.68,NNE,22,1.8,7.4,98,0.09,,SKC,1.17,VWS V14.01,2013-10-15 23:00:00,
2013-10-15 18:20:00,49.3,48.7,29.68,NE,45,1.8,6.7,98,0.17,,SKC,1.25,VWS V14.01,2013-10-15 23:20:00,
2013-10-15 18:40:00,49.3,48.7,29.68,East,90,1.8,8.2,98,0.16,,SKC,1.29,VWS V14.01,2013-10-15 23:40:00,
2013-10-15 19:00:00,49.1,48.6,29.68,NNE,22,1.3,6.3,98,0.16,,SKC,1.29,VWS V14.01,2013-10-16 00:00:00,
2013-10-15 19:20:00,49.1,48.6,29.68,NNE,22,0.0,6.7,98,0.12,,SKC,1.29,VWS V14.01,2013-10-16 00:20:00,
2013-10-15 19:40:00,48.9,48.4,29.68,NNE,22,3.1,8.6,98,0.08,,SKC,1.33,VWS V14.01,2013-10-16 00:40:00,
2013-10-15 20:00:00,48.7,48.2,29.68,NNE,22,2.8,9.8,98,0.04,,SKC,1.33,VWS V14.01,2013-10-16 01:00:00,
2013-10-15 20:20:00,48.2,47.7,29.71,SSE,158,3.9,8.6,98,0.04,,SKC,1.33,VWS V14.01,2013-10-16 01:20:00,
2013-10-15 20:40:00,47.5,47.0,29.71,ENE,68,4.6,9.4,98,0.04,,SKC,1.33,VWS V14.01,2013-10-16 01:40:00,
2013-10-15 21:00:00,47.3,46.8,29.71,ESE,112,3.3,9.8,98,0.04,,SKC,1.37,VWS V14.01,2013-10-16 02:00:00,
2013-10-15 21:20:00,46.9,46.4,29.71,NNE,22,3.6,11.0,98,0.04,,SKC,1.37,VWS V14.01,2013-10-16 02:20:00,
2013-10-15 21:40:00,46.4,45.9,29.71,NNE,22,3.9,10.6,98,0.04,,SKC,1.37,VWS V14.01,2013-10-16 02:40:00,
2013-10-15 22:00:00,45.9,45.3,29.74,North,0,4.1,11.4,98,0.04,,SKC,1.37,VWS V14.01,2013-10-16 03:00:00,
2013-10-15 22:20:00,45.3,44.8,29.71,SSW,202,4.9,11.0,98,0.00,,SKC,1.37,VWS V14.01,2013-10-16 03:20:00,
2013-10-15 22:40:00,45.0,44.4,29.74,NE,45,2.8,12.9,98,0.00,,SKC,1.37,VWS V14.01,2013-10-16 03:40:00,
2013-10-15 23:00:00,44.8,44.2,29.74,ENE,68,1.8,9.8,98,0.00,,SKC,1.37,VWS V14.01,2013-10-16 04:00:00,
2013-10-15 23:20:00,45.0,44.4,29.71,ENE,68,1.3,11.0,98,0.00,,SKC,1.37,VWS V14.01,2013-10-16 04:20:00,
2013-10-15 23:40:00,45.1,44.6,29.71,ESE,112,1.5,11.0,98,0.00,,SKC,1.37,VWS V14.01,2013-10-16 04:40:00,